Regional Weather Roundup
Issued by NWS Bismarck, ND

Home | Current Version | Previous Version | Text Only | Print | Product List | Glossary On
Versions: 1 2 3 4 5 6 7 8 9 10 11 12 13 14 15 16 17 18 19 20 21 22 23 24 25 26 27 28 29 30 31 32 33 34 35 36 37 38 39 40 41 42 43 44 45 46 47 48 49 50
000
ASUS43 KBIS 251202
RWRBIS

NWR BROADCAST TEXT
NATIONAL WEATHER SERVICE BISMARCK ND
700 AM CDT SUN JUN 25 2017

NOTE: "FAIR" INDICATES FEW OR NO CLOUDS BELOW 12,000 FEET WITH NO
SIGNIFICANT WEATHER AND/OR OBSTRUCTIONS TO VISIBILITY.


CITY           SKY/WX    TMP DP  RH WIND       PRES   REMARKS
WILLISTON      LGT RAIN  52  42  69 CALM      30.28R
MINOT          MOCLDY    53  41  63 SW7       30.24S
MINOT AFB      MOCLDY    48  45  87 CALM      30.23F
BISMARCK       LGT RAIN  47  40  76 CALM      30.30R
DICKINSON      PTCLDY    44  33  65 SW8       30.26S
GARRISON         N/A     50  46  86 W7        30.27R
HETTINGER ARPT CLEAR     41  32  70 SW6       30.32S
JAMESTOWN      SUNNY     48  44  86 W6        30.25R
HAZEN          CLOUDY    46  41  81 CALM      30.29S
LINTON           N/A    N/A N/A N/A CALM      30.31S
MANDAN         CLOUDY    48  37  66 W5        30.30R
STANLEY        FAIR      54  48  82 NW5       30.28R
TIOGA          PTSUNNY   52  50  93 W14G20    30.29R
WATFORD CITY   FAIR      46  43  87 SE3       30.27F
$$

CITY           SKY/WX    TMP DP  RH WIND       PRES   REMARKS
GRAND FORKS    MOSUNNY   47  44  90 W6        30.22R
GRAND FORKS AF SUNNY     48  42  80 NW5       30.23R
DEVILS LAKE    SUNNY     46  44  93 NW3       30.25S
FARGO          SUNNY     49  43  80 NW9       30.22R
GRAFTON        FAIR      46  43  87 NW8       30.24R
GWINNER        SUNNY     50  45  81 NW7       30.26R
LANGDON        FAIR      39  39 100 NW5       30.24S
ROLLA            N/A     43  43 100 N6        30.25S
$$

CITY           SKY/WX    TMP DP  RH WIND       PRES   REMARKS
ABERDEEN       SUNNY     47  42  83 W3        30.29R
MOBRIDGE       CLEAR     45  39  79 CALM      30.28S
BUFFALO          N/A     48  32  53 W5        30.26F
RAPID CITY     PTCLDY    45  33  63 S5        30.35F
GLASGOW        CLEAR     42  34  73 NW5       30.26R
SIDNEY         MOCLDY    47  37  68 S5        30.26R
WOLF POINT     CLEAR     45  33  63 W5        30.26S
GLENDIVE       PTCLDY    46  34  62 S7        30.28S
MILES CITY     CLEAR     49  31  49 S7        30.29S
BAKER          CLEAR     48  31  51 N3        30.31R
$$

CITY           SKY/WX    TMP DP  RH WIND       PRES   REMARKS
BILLINGS       PTCLDY    53  40  61 SW3       30.32R
GREAT FALLS    CLEAR     47  40  76 S5        30.32S
ESTEVAN        LGT RAIN  48  48 100 NW3       30.25S
$$





USA.gov is the U.S. government's official web portal to all federal, state and local government web resources and services.